Weather in Shamattawa

Canada     55°51′35″N   92°05′53″W
temp.,
°C
wind,
m/s
gust,
m/s
humid.,
%
clouds,
%
prec.,
mm/h
press.,
hPa
HPBL,
m
9 march, tue
tue900:00−15n5119081 0.5 1021373
03:00−21nnw239211 0.0 102424
06:00−23nw22946 0.0 102620
09:00−20wnw128433 0.0 1026211
12:00−15n127467 0.0 1025326
15:00−13ne2478100 0.0 1022374
18:00−15ene2288100 0.0 102128
21:00−16ene3790100 0.0 1020179
10 march, wed
wed1000:00−16ne3787100 0.0 1018244
03:00−17ne3789100 0.0 1017266
06:00−18nne2492100 0.0 1018103
09:00−16ene1385100 0.0 1019229
12:00−12sse237959 0.0 1020405
15:00−9sse34831 0.0 1018496
18:00−12se49900 0.0 1016212
21:00−12sse4109189 0.0 1014273
11 march, thu
thu1100:00−10s5129295 0.0 1013436
03:00−10s41094100 0.1 1012386
06:00−11ssw2696100 0.6 1011174
09:00−14nnw5994100 0.8 1012371
12:00−14nnw6993100 1.8 1012573
15:00−17nnw61094100 0.8 1014613
18:00−20nnw61196100 1.4 1016641
21:00−23nnw51095100 0.4 1019523
12 march, fri
fri1200:00−26nnw4895100 0.6 1021339
03:00−31nw379688 0.0 1024188
06:00−33wnw369558 0.0 1026149
09:00−27wnw36921 0.0 1027309
12:00−21w46850 0.0 1028478
15:00−17w47830 0.0 1028601
18:00−19wsw339119 0.0 102965
21:00−18sw31093100 0.0 1028266
13 march, sat
sat1300:00−17wsw3109293 0.0 1026279
03:00−17wsw3119422 0.0 1025265
06:00−16wsw3109436 0.0 1025280
09:00−12w489292 0.0 1025345
12:00−8w369196 0.1 1025429
15:00−5w4790100 0.0 1025579
18:00−5wnw2692100 0.1 1024229
21:00−6w2397100 0.1 102588